EA7JCM-13 Weather Reports


time (UTC)temp
C
wind
direction
speed
KPH
gust
KPH
rain 1hr
cm
rain 24hr
cm
rain mn
cm
humidity
%
barometer
mb
20260504024503 13 182 3.2 6.4 0.00 0.00 0.00 74 1010.3
20260504024003 13 185 4.8 6.4 0.00 0.00 0.00 74 1010.6
20260504023503 13 177 4.8 11.3 0.00 0.00 0.00 74 1010.4
20260504023003 13 169 3.2 11.3 0.00 0.00 0.00 73 1010.4
20260504022504 13 168 4.8 9.7 0.00 0.00 0.00 73 1010.5
20260504022003 13 176 3.2 9.7 0.00 0.00 0.00 73 1010.4
20260504021504 13 176 4.8 9.7 0.00 0.00 0.00 73 1010.4
20260504021004 13 162 3.2 9.7 0.00 0.00 0.00 73 1010.4
20260504020503 13 166 4.8 9.7 0.00 0.00 0.00 73 1010.3
20260504020003 13 186 1.6 6.4 0.00 0.00 0.00 74 1010.4
20260504015504 13 176 3.2 6.4 0.00 0.00 0.00 74 1010.6
20260504015003 13 173 3.2 6.4 0.00 0.00 0.00 74 1010.6
20260504014504 13 189 3.2 6.4 0.00 0.00 0.00 74 1010.6
20260504014004 13 196 4.8 9.7 0.00 0.00 0.00 75 1010.6
20260504013503 13 188 3.2 9.7 0.00 0.00 0.00 75 1010.6
20260504013003 13 191 3.2 6.4 0.00 0.00 0.00 75 1010.7
20260504012503 13 193 4.8 9.7 0.00 0.00 0.00 75 1010.8
20260504012003 13 197 3.2 9.7 0.00 0.00 0.00 75 1010.9
20260504011504 13 190 4.8 6.4 0.00 0.00 0.00 75 1010.9
20260504011004 13 174 4.8 6.4 0.00 0.00 0.00 75 1011.2
20260504010503 13 175 4.8 9.7 0.00 0.00 0.00 74 1011.0
20260504010003 13 182 4.8 9.7 0.00 0.00 0.00 74 1011.1
20260504005504 13 192 6.4 9.7 0.00 0.00 0.00 74 1011.0
20260504005004 13 199 3.2 9.7 0.00 0.00 0.00 73 1011.2
20260504004505 13 192 3.2 11.3 0.00 0.00 0.00 73 1011.1
20260504004003 13 184 6.4 11.3 0.00 0.00 0.00 72 1011.5
20260504003504 13 188 6.4 11.3 0.00 0.00 0.00 72 1011.5
20260504003004 13 187 4.8 11.3 0.00 0.00 0.00 71 1011.2
20260504002503 13 175 6.4 14.5 0.00 0.00 0.00 71 1011.3
20260504002004 14 168 6.4 17.7 0.00 0.00 0.00 70 1011.3
20260504001503 14 177 6.4 17.7 0.00 0.00 0.00 70 1011.5
20260504001003 14 183 3.2 12.9 0.00 0.00 0.00 70 1011.6
20260504000504 14 181 8.0 12.9 0.00 0.00 0.00 71 1011.4
20260504000003 14 194 4.8 12.9 0.00 0.00 0.00 71 1011.6
20260503235503 14 204 8.0 12.9 0.00 0.00 0.00 72 1011.6
20260503235004 14 204 8.0 12.9 0.00 0.00 0.00 72 1011.4
20260503234504 14 203 6.4 12.9 0.00 0.00 0.00 72 1011.6
20260503234004 14 195 6.4 12.9 0.00 0.00 0.00 71 1011.5
20260503233504 14 197 6.4 14.5 0.00 0.00 0.00 71 1011.5
20260503233003 14 197 6.4 14.5 0.00 0.00 0.00 70 1011.5
20260503232504 14 195 8.0 14.5 0.00 0.00 0.00 70 1011.5
20260503232004 14 195 6.4 12.9 0.00 0.00 0.00 70 1011.5
20260503231503 14 198 6.4 14.5 0.00 0.00 0.00 70 1011.7
20260503231004 14 192 6.4 17.7 0.00 0.00 0.00 70 1011.7
20260503230504 14 185 6.4 17.7 0.00 0.00 0.00 70 1011.5
20260503230004 14 193 9.7 17.7 0.00 0.00 0.00 69 1011.6
20260503225503 15 196 9.7 14.5 0.00 0.00 0.00 69 1011.5
20260503225004 15 186 4.8 14.5 0.00 0.00 0.00 68 1011.6
20260503224504 15 178 6.4 11.3 0.00 0.00 0.00 68 1011.7
20260503224004 15 183 3.2 14.5 0.00 0.00 0.00 68 1011.7
20260503223503 15 178 6.4 14.5 0.00 0.00 0.00 67 1011.6
20260503223004 15 165 6.4 14.5 0.00 0.00 0.00 67 1011.5
20260503222504 15 164 6.4 11.3 0.00 0.00 0.00 66 1011.4
20260503222004 15 172 3.2 11.3 0.00 0.00 0.00 66 1011.5
20260503221503 15 184 6.4 11.3 0.00 0.00 0.00 65 1011.7
20260503221004 15 194 3.2 12.9 0.00 0.00 0.00 65 1011.5
20260503220505 15 203 6.4 12.9 0.00 0.00 0.00 64 1011.6
20260503220008 15 202 6.4 14.5 0.00 0.00 0.00 64 1011.5
20260503215504 15 191 4.8 14.5 0.00 0.00 0.00 63 1011.5
20260503215004 16 186 11.3 14.5 0.00 0.00 0.00 63 1011.3
20260503214504 16 169 6.4 12.9 0.00 0.00 0.00 62 1011.3
20260503214004 16 165 6.4 12.9 0.00 0.00 0.00 62 1011.3
20260503213503 16 178 6.4 14.5 0.00 0.00 0.00 62 1011.4
20260503213004 16 187 6.4 14.5 0.00 0.00 0.00 62 1011.1
20260503212504 16 202 9.7 20.9 0.00 0.00 0.00 61 1011.2
20260503212005 16 208 9.7 20.9 0.00 0.00 0.00 61 1011.0
20260503211504 16 201 9.7 17.7 0.00 0.00 0.00 60 1010.9
20260503211003 16 193 9.7 14.5 0.00 0.00 0.00 60 1010.9
20260503210503 16 194 6.4 17.7 0.00 0.00 0.00 60 1011.0
20260503210005 16 198 8.0 17.7 0.00 0.00 0.00 59 1010.8
20260503205504 16 199 11.3 17.7 0.00 0.00 0.00 59 1011.0
20260503205004 16 193 6.4 17.7 0.00 0.00 0.00 59 1010.7
20260503204504 17 181 4.8 12.9 0.00 0.00 0.00 58 1010.8
20260503204003 17 177 3.2 9.7 0.00 0.00 0.00 58 1010.8
20260503203502 17 184 6.4 12.9 0.00 0.00 0.00 58 1010.7
20260503203002 17 189 4.8 14.5 0.00 0.00 0.00 58 1010.7
20260503202503 17 197 8.0 14.5 0.00 0.00 0.00 57 1010.6
20260503202001 17 201 9.7 14.5 0.00 0.00 0.00 56 1010.7
20260503201502 17 176 6.4 12.9 0.00 0.00 0.00 56 1010.6
20260503201002 17 171 6.4 12.9 0.00 0.00 0.00 55 1010.3
20260503200502 17 197 6.4 17.7 0.00 0.00 0.00 54 1010.0
20260503200002 17 208 6.4 17.7 0.00 0.00 0.00 54 1010.0
20260503195502 17 201 8.0 17.7 0.00 0.00 0.00 54 1009.9
20260503195002 17 191 6.4 17.7 0.00 0.00 0.00 55 1009.9
20260503194502 18 195 8.0 17.7 0.00 0.00 0.00 55 1009.8
20260503194002 18 199 8.0 12.9 0.00 0.00 0.00 54 1009.6
20260503193502 18 196 6.4 14.5 0.00 0.00 0.00 54 1009.6
20260503193003 18 195 8.0 17.7 0.00 0.00 0.00 54 1009.5
20260503192502 18 197 8.0 17.7 0.00 0.00 0.00 54 1009.6
20260503192002 18 196 6.4 17.7 0.00 0.00 0.00 53 1009.6
20260503191502 18 187 9.7 17.7 0.00 0.00 0.00 53 1009.8
20260503191001 18 199 9.7 17.7 0.00 0.00 0.00 53 1009.5
20260503190502 18 202 6.4 17.7 0.00 0.00 0.00 53 1009.6
20260503190002 18 193 11.3 17.7 0.00 0.00 0.00 52 1009.4
20260503185502 18 193 9.7 17.7 0.00 0.00 0.00 52 1009.5
20260503185002 19 192 8.0 17.7 0.00 0.00 0.00 52 1009.2
20260503184503 19 211 4.8 22.5 0.00 0.00 0.00 52 1009.2
20260503184002 19 214 12.9 22.5 0.00 0.00 0.00 51 1009.3
20260503183502 19 202 3.2 17.7 0.00 0.00 0.00 51 1009.3
20260503183002 19 210 8.0 20.9 0.00 0.00 0.00 50 1009.2
20260503182502 20 219 11.3 20.9 0.00 0.00 0.00 49 1009.1
20260503182003 20 215 8.0 20.9 0.00 0.00 0.00 48 1009.0
20260503181503 20 207 8.0 20.9 0.00 0.00 0.00 48 1009.4
20260503181002 20 213 11.3 25.7 0.00 0.00 0.00 49 1009.2
20260503180502 20 220 12.9 25.7 0.00 0.00 0.00 49 1009.3
20260503180002 20 203 8.0 17.7 0.00 0.00 0.00 49 1009.2
20260503175503 20 187 11.3 17.7 0.00 0.00 0.00 50 1009.1
20260503175002 20 216 11.3 24.1 0.00 0.00 0.00 50 1009.3
20260503174502 20 223 8.0 24.1 0.00 0.00 0.00 50 1008.9
20260503174002 20 202 9.7 25.7 0.00 0.00 0.00 50 1009.2
20260503173502 20 218 11.3 25.7 0.00 0.00 0.00 50 1009.1
20260503173002 20 230 12.9 22.5 0.00 0.00 0.00 49 1009.2
20260503172502 21 191 6.4 22.5 0.00 0.00 0.00 50 1009.0
20260503172002 20 187 12.9 22.5 0.00 0.00 0.00 52 1009.0
20260503171503 20 201 6.4 24.1 0.00 0.00 0.00 52 1009.0
20260503171003 20 205 12.9 24.1 0.00 0.00 0.00 52 1009.1
20260503170502 20 216 9.7 24.1 0.00 0.00 0.00 52 1008.9
20260503151002 21 209 11.3 22.5 0.00 0.00 0.00 52 1009.2
20260503150502 20 224 12.9 29.0 0.00 0.00 0.00 53 1009.1
20260503131003 20 232 11.3 20.9 0.00 0.00 0.00 58 1010.1
20260503130502 20 244 11.3 20.9 0.00 0.00 0.00 58 1010.1
20260503110502 18 228 6.4 14.5 0.00 0.00 0.00 70 1011.5
20260503090502 15 202 3.2 9.7 0.00 0.00 0.00 82 1012.2
20260503081502 14 199 3.2 9.7 0.00 0.00 0.00 86 1012.1
20260503081002 14 211 3.2 11.3 0.00 0.00 0.00 87 1012.1
20260503080502 14 212 6.4 11.3 0.00 0.00 0.00 86 1012.2
20260503072503 14 186 6.4 11.3 0.00 0.00 0.00 86 1011.9
20260503072003 14 185 6.4 11.3 0.00 0.00 0.00 86 1012.0
20260503071502 14 192 6.4 11.3 0.00 0.00 0.00 86 1011.6
20260503071003 14 178 4.8 9.7 0.00 0.00 0.00 86 1011.6
20260503070503 14 151 1.6 9.7 0.00 0.00 0.00 87 1011.5
20260503055002 13 192 3.2 11.3 0.00 0.00 0.00 89 1011.7
20260503054503 13 194 4.8 11.3 0.00 0.00 0.00 88 1011.7
20260503054003 13 198 3.2 9.7 0.00 0.00 0.00 88 1011.7
20260503053502 13 188 4.8 11.3 0.00 0.00 0.00 88 1011.7
20260503053003 13 174 4.8 11.3 0.00 0.00 0.00 88 1011.5
20260503052502 13 183 3.2 11.3 0.00 0.00 0.00 87 1011.5
20260503052002 13 188 4.8 11.3 0.00 0.00 0.00 87 1011.5
20260503051503 13 194 6.4 9.7 0.00 0.00 0.00 87 1011.5
20260503051002 13 194 4.8 9.7 0.00 0.00 0.00 87 1011.6
20260503050503 13 184 4.8 11.3 0.00 0.00 0.00 87 1011.5
20260503050003 13 188 6.4 11.3 0.00 0.00 0.00 87 1011.4
20260503045502 13 192 3.2 11.3 0.00 0.00 0.00 87 1011.3
20260503045003 13 189 8.0 11.3 0.00 0.00 0.00 87 1011.3
20260503044503 13 193 3.2 11.3 0.00 0.00 0.00 87 1011.3
20260503044003 13 194 8.0 12.9 0.00 0.00 0.00 88 1011.7
20260503043503 13 188 6.4 12.9 0.00 0.00 0.00 88 1011.3
20260503043003 13 186 4.8 9.7 0.00 0.00 0.00 88 1011.5
20260503042502 13 187 4.8 11.3 0.00 0.00 0.00 88 1011.4
20260503042002 13 186 6.4 11.3 0.00 0.00 0.00 89 1011.7
20260503041503 14 171 4.8 11.3 0.00 0.00 0.00 89 1011.6
20260503041004 14 175 4.8 11.3 0.00 0.00 0.00 89 1011.6
20260503040502 13 194 6.4 14.5 0.00 0.00 0.00 89 1011.5
20260503040003 14 204 9.7 14.5 0.00 0.00 0.00 89 1011.7
20260503035504 14 216 4.8 12.9 0.00 0.00 0.00 90 1011.8
20260503035003 14 223 4.8 12.9 0.00 0.00 0.00 90 1011.5
20260503034503 14 223 6.4 12.9 0.00 0.00 0.00 90 1011.3
20260503034003 14 212 6.4 11.3 0.00 0.00 0.00 90 1011.6
20260503033502 14 201 3.2 11.3 0.00 0.00 0.00 90 1011.6
20260503033003 14 206 6.4 12.9 0.00 0.00 0.00 90 1011.8
20260503032503 14 217 6.4 17.7 0.00 0.00 0.00 90 1011.7
20260503032002 14 219 8.0 17.7 0.00 0.00 0.00 90 1011.7
20260503031503 14 208 8.0 17.7 0.00 0.00 0.00 90 1011.9
20260503031003 14 199 8.0 17.7 0.00 0.00 0.00 90 1011.9
20260503030503 14 198 8.0 17.7 0.00 0.00 0.00 90 1011.9
20260503030004 14 201 6.4 17.7 0.00 0.00 0.00 90 1011.9
20260503025503 14 207 8.0 14.5 0.00 0.00 0.00 90 1012.0
20260503025002 14 203 6.4 14.5 0.00 0.00 0.00 90 1011.9